Regional Weather Roundup
Issued by NWS

Home | Current Version | Previous Version | Text Only | Print | Product List | Glossary Off
Versions: 1 2 3 4 5 6 7 8 9 10 11 12 13 14 15 16 17 18 19 20 21 22 23 24 25 26 27 28 29 30 31 32 33 34 35 36 37 38 39 40 41 42 43 44 45 46 47 48 49 50

202
ASUS43 KDTX 070410
RWRMI
MICHIGAN HOURLY REGIONAL WEATHER ROUNDUP
NATIONAL WEATHER SERVICE DETROIT/PONTIAC MI
1100 PM EST SAT FEB 06 2016

NOTE: "FAIR" INDICATES FEW OR NO CLOUDS BELOW 12,000 FEET WITH NO
SIGNIFICANT WEATHER AND/OR OBSTRUCTION TO VISIBILITY.

MIZ047>049-052>055-059>063-066>070-074>076-081>083-070500-
SOUTHEAST LOWER MICHIGAN

CITY           SKY/WX    TMP DP  RH WIND       PRES   REMARKS
ADRIAN         CLOUDY    31  25  78 SW5       30.15F WCI  26
ALMA           CLOUDY    33  28  83 SW7       30.08F WCI  27
ANN ARBOR      CLOUDY    32  24  72 SW6       30.14F WCI  26
BAD AXE        CLOUDY    33  27  77 SW7       30.09F WCI  27
CARO           CLOUDY    32  24  73 S3        30.09F
DETROIT CITY   CLOUDY    34  23  64 SW8       30.14F WCI  27
DETROIT        CLOUDY    33  24  69 SW8       30.16F WCI  26
FLINT          CLOUDY    35  21  56 S7        30.11F WCI  29
GROSSE ILE     MOCLDY    34  25  69 S3        30.15S
HILLSDALE      MOCLDY    32  24  72 S5        30.12F WCI  28
HOWELL         CLOUDY    33  24  71 S5        30.10F WCI  28

CITY           SKY/WX    TMP DP  RH WIND       PRES   REMARKS
JACKSON        CLOUDY    34  25  69 SW7       30.12F WCI  28
LAMBERTVILLE   PTCLDY    32  25  74 SW5       30.17F WCI  27
LANSING        CLOUDY    33  23  66 S8        30.10F WCI  26
LAPEER         CLOUDY    32  23  68 SW6       30.10F WCI  27
MASON          CLOUDY    32  26  78 S3        30.11F
MONROE         PTCLDY    32  25  76 CALM      30.15F
MT. CLEMENS    CLOUDY    34  24  67 SW5       30.12F WCI  30
PONTIAC        CLOUDY    33  21  61 SW6       30.11F WCI  28
PORT HOPE        N/A     33  25  72 SW8       30.07F WCI  26
PORT HURON     CLOUDY    30  27  86 S3        30.14F
TRI CITIES     CLOUDY    34  26  72 S8        30.08F WCI  27
MIDLAND        CLOUDY    33  26  76 SW10      30.07F WCI  25
TROY           CLOUDY    35  24  63 S3        30.15F
SAGINAW HB     CLOUDY    32  28  86 S6        30.09F WCI  26
$$
MIZ043>046-050>051-056>058-064>065-071>073-077>080-070500-
SOUTHWEST LOWER MICHIGAN

CITY           SKY/WX    TMP DP  RH WIND       PRES   REMARKS
BATTLE CREEK   MOCLDY    31  25  78 S7        30.11F WCI  24
BENTON HARBOR  CLEAR     33  26  75 S7        30.10F WCI  27
BIG RAPIDS     CLOUDY    32  30  92 SW6       30.03F WCI  26
COLDWATER      CLOUDY    32  27  80 SW3       30.12F
FREMONT        FAIR      30  30  97 S3        30.05F
HOLLAND        CLEAR     30  26  85 S6        30.09F WCI  24
GRAND RAPIDS   PTCLDY    32  26  78 S8        30.09F WCI  25
IONIA          CLOUDY    32  26  76 S10       30.08F WCI  24
KALAMAZOO      PTCLDY    31  25  78 S6        30.11F WCI  25
LUDINGTON      MOCLDY    31  29  92 S6        30.03F WCI  25
MARSHALL       CLOUDY    33  27  79 S5        30.11F WCI  28
MOUNT PLEASANT CLOUDY    33  27  79 SW6       30.06F WCI  28
MUSKEGON       MOCLDY    31  27  85 SE5       30.06F FOG     WCI  26
SOUTH HAVEN    CLEAR     32  28  84 S5        30.10F WCI  27
$$
MIZ016>042-070500-
NORTHERN LOWER MICHIGAN

CITY           SKY/WX    TMP DP  RH WIND       PRES   REMARKS
ALPENA         CLOUDY    29  23  78 S6        30.03F WCI  23
BEAVER ISLAND  CLOUDY    33  28  82 SW12G21   29.97F WCI  24
BELLAIRE       CLOUDY    31  26  81 S5        30.02F WCI  26
CADILLAC       CLOUDY    30  27  88 SW12      29.99F WCI  20
CHARLEVOIX     CLOUDY    31  27  82 S7        30.02F WCI  25
FRANKFORT      CLOUDY    33  28  83 S8        30.00F WCI  26
GAYLORD        CLOUDY    28  24  85 SW9       29.98F WCI  19
GRAYLING       CLOUDY    29  25  85 S5        30.01F WCI  24
HARBOR SPRINGS CLOUDY    30  25  82 SW7       30.00S WCI  23
HOUGHTON LAKE  CLOUDY    30  25  81 S7        30.02F WCI  23
MANISTEE       MOCLDY    30  25  80 SE3       30.02F
OSCODA         CLOUDY    31  25  78 S5        30.05F WCI  26
PELLSTON       CLOUDY    30  24  78 SW8       29.99F WCI  22
ROGERS CITY    CLOUDY    29  23  80 CALM      30.02F
TRAVERSE CITY  MOCLDY    32  25  75 VRB6      30.00F WCI  26
$$
MIZ007>008-015-070500-
EASTERN UPPER MICHIGAN

CITY           SKY/WX    TMP DP  RH WIND       PRES   REMARKS
KINROSS        CLOUDY    27  27 100 SE6       29.97F WCI  20
MACKINAC ISLAN CLOUDY    29  26  86 S8        29.97F WCI  21
NEWBERRY       CLOUDY    28  25  89 S6        29.93F WCI  21
S. S. MARIE    LGT SNOW  26  22  84 SE5       29.97F FOG     WCI  20
MUNISING         N/A     29  24  82 S7        29.90F WCI  22
$$
MIZ004>006-011>014-085-070500-
CENTRAL UPPER MICHIGAN

CITY           SKY/WX    TMP DP  RH WIND       PRES   REMARKS
MANISTIQUE     CLOUDY    31  26  83 SW12G18   29.94F WCI  22
ESCANABA       CLOUDY    30  27  86 S12G17    29.93F WCI  21
MENOMINEE      CLOUDY    30  25  80 SW14      29.94F WCI  20
SAWYER-GWINN   CLOUDY    27  23  87 S13       29.85F WCI  16
$$
MIZ001>003-009>011-084-070500-
WESTERN UPPER MICHIGAN

CITY           SKY/WX    TMP DP  RH WIND       PRES   REMARKS
IRON MOUNTAIN  CLOUDY    29  22  75 SE7       29.86F HAZE    WCI  22
HOUGHTON       LGT SNOW  28  25  88 E7        29.76F FOG     WCI  21
COPPER HARBOR    N/A     31  26  82 SW10G21   29.80F WCI  22
IRONWOOD       CLOUDY    34  25  69 S16G22    29.71F WCI  23
$$

ABBREVIATIONS USED IN REMARKS
   TC - TEMPERATURE IN CELSIUS
  WCI - WIND CHILL INDEX
   HX - HEAT INDEX
  VSB - VISIBILITY





USA.gov is the U.S. government's official web portal to all federal, state and local government web resources and services.